TA3ONK-13 Weather Reports


time (UTC)temp
C
wind
direction
speed
KPH
gust
KPH
rain 1hr
cm
rain 24hr
cm
rain mn
cm
humidity
%
barometer
mb
20260504045804 14 0 0.0 0.0 0.00 0.00 0.00 49 1018.4
20260504044304 14 0 0.0 0.0 0.00 0.00 0.00 49 1018.3
20260504042805 14 0 0.0 0.0 0.00 0.00 0.00 50 1018.1
20260504041304 14 0 0.0 0.0 0.00 0.00 0.00 50 1018.0
20260504035804 14 0 0.0 0.0 0.00 0.00 0.00 50 1017.9
20260504034303 14 0 0.0 0.0 0.00 0.00 0.00 50 1017.8
20260504032804 14 0 0.0 0.0 0.00 0.00 0.00 51 1017.7
20260504031303 13 0 0.0 0.0 0.00 0.00 0.00 51 1017.7
20260504025805 14 0 0.0 0.0 0.00 0.00 0.00 49 1017.5
20260504024304 15 0 0.0 0.0 0.00 0.00 0.00 49 1017.5
20260504022804 15 0 0.0 0.0 0.00 0.00 0.00 49 1017.4
20260504021304 15 0 0.0 0.0 0.00 0.00 0.00 49 1017.3
20260504015804 15 0 0.0 0.0 0.00 0.00 0.00 48 1017.4
20260504014305 15 0 0.0 0.0 0.00 0.00 0.00 48 1017.4
20260504012805 16 0 0.0 0.0 0.00 0.00 0.00 46 1017.4
20260504011256 17 0 0.0 0.0 0.00 0.00 0.00 42 1017.5
20260504005806 16 0 0.0 0.0 0.00 0.00 0.00 45 1017.3
20260504004304 16 0 0.0 0.0 0.00 0.00 0.00 45 1017.4
20260504002804 16 0 0.0 0.0 0.00 0.00 0.00 46 1017.4
20260504001305 16 0 0.0 0.0 0.00 0.00 0.00 46 1017.4
20260503235804 14 0 0.0 0.0 0.00 0.00 0.00 48 1017.5
20260503234303 15 0 0.0 0.0 0.00 0.00 0.00 49 1017.4
20260503231305 15 0 0.0 0.0 0.00 0.00 0.00 48 1017.6
20260503225804 15 0 0.0 0.0 0.00 0.00 0.00 48 1017.7
20260503224304 15 0 0.0 0.0 0.00 0.00 0.00 48 1017.6
20260503222804 15 0 0.0 0.0 0.00 0.00 0.00 47 1017.5
20260503221304 15 0 0.0 0.0 0.00 0.00 0.00 47 1017.5
20260503215804 15 0 0.0 0.0 0.00 0.00 0.00 47 1017.5
20260503214305 15 0 0.0 0.0 0.00 0.00 0.00 48 1017.4
20260503212804 15 0 0.0 0.0 0.00 0.00 0.00 47 1017.5
20260503211303 14 0 0.0 0.0 0.00 0.00 0.00 46 1017.4
20260503205806 15 0 0.0 0.0 0.00 0.00 0.00 48 1017.3
20260503204305 15 0 0.0 0.0 0.00 0.00 0.00 47 1017.4
20260503202808 15 0 0.0 0.0 0.00 0.00 0.00 47 1017.4
20260503201305 15 0 0.0 0.0 0.00 0.00 0.00 49 1017.5
20260503195804 15 0 0.0 0.0 0.00 0.00 0.00 48 1017.4
20260503194303 15 0 0.0 0.0 0.00 0.00 0.00 48 1017.4
20260503192803 15 0 0.0 0.0 0.00 0.00 0.00 49 1017.3
20260503191305 15 0 0.0 0.0 0.00 0.00 0.00 48 1017.3
20260503185805 15 0 0.0 0.0 0.00 0.00 0.00 49 1017.2
20260503184304 15 0 0.0 0.0 0.00 0.00 0.00 48 1017.2
20260503182805 14 0 0.0 0.0 0.00 0.00 0.00 48 1017.1
20260503181305 15 0 0.0 0.0 0.00 0.00 0.00 49 1017.0
20260503175805 15 0 0.0 0.0 0.00 0.00 0.00 49 1016.8
20260503172803 15 0 0.0 0.0 0.00 0.00 0.00 49 1016.6
20260503171302 15 0 0.0 0.0 0.00 0.00 0.00 47 1016.4
20260503131203 15 0 0.0 0.0 0.00 0.00 0.00 59 1015.5
20260503080703 15 0 0.0 0.0 0.00 0.00 0.00 53 1016.4
20260503071901 14 0 0.0 0.0 0.00 0.00 0.00 55 1016.5